STARLINK-30537

operational
NORAD ID: 57991 Int'l Des: 2023-153 Owner: SPXS Country: US Constellation: starlink
LEOCIRCULAR

STARLINK-30537について

説明を読み込み中...

リアルタイム位置

3D地球を読み込み中...

次回通過

高度履歴

Altitude vs Time

uPlot chart will show altitude changes over time

軌道要素

1 57991U 23153A 25251.55055902 .00000439 00000-0 47581-4 0 9996
2 57991 43.0043 338.8142 0001161 264.9486 95.1224 15.02535289107375
Epoch: Sep 8, 2025 • Age: 21 hours

現在のステータス

高度 560.8 km
速度 7.59 km/s
衛星直下点 33.02°N, 123.61°W
打ち上げ日 Oct 5, 2023
運用期間 1.9 years
タイプ internet

技術仕様

分類 Payload
質量 730.00 kg
乾燥質量 700.00 kg
総質量 730.00 kg
長さ 0.30 m
直径 4.10 m
スパン 29.00 m
形状 Box + pan
製造者 SPXS
バスタイプ Starlink V2M
フェーズステータス In Orbit
所有者/国 SPXS/US

大規模コンステレーション

Loading constellations...